owner,sensor,date,latitude,longitude,air_temperature,qcFlag 
COMPS,ioos:station:USF.COMPS:ARP:1,2009-01-01T00:00:00Z,28.4330,-82.6670,17.43,1111122 
COMPS,ioos:station:USF.COMPS:ARP:1,2009-01-01T00:06:00Z,28.4330,-82.6670,17.47,1111122 
COMPS,ioos:station:USF.COMPS:ARP:1,2009-01-01T00:12:00Z,28.4330,-82.6670,17.41,1111122 
COMPS,ioos:station:USF.COMPS:ARP:1,2009-01-01T00:18:00Z,28.4330,-82.6670,17.27,1111122 
COMPS,ioos:station:USF.COMPS:ARP:1,2009-01-01T00:24:00Z,28.4330,-82.6670,17.16,1111122 
COMPS,ioos:station:USF.COMPS:ARP:1,2009-01-01T00:30:00Z,28.4330,-82.6670,17.14,1111122 
COMPS,ioos:station:USF.COMPS:ARP:1,2009-01-01T00:36:00Z,28.4330,-82.6670,17.15,1111122 
COMPS,ioos:station:USF.COMPS:ARP:1,2009-01-01T00:42:00Z,28.4330,-82.6670,17.11,1111122 
COMPS,ioos:station:USF.COMPS:ARP:1,2009-01-01T00:48:00Z,28.4330,-82.6670,17.15,1111122 
COMPS,ioos:station:USF.COMPS:ARP:1,2009-01-01T00:54:00Z,28.4330,-82.6670,17.21,1111122 
COMPS,ioos:station:USF.COMPS:ARP:1,2009-01-01T01:00:00Z,28.4330,-82.6670,17.02,1111122 
COMPS,ioos:station:USF.COMPS:ARP:1,2009-01-01T01:06:00Z,28.4330,-82.6670,17.0,1111122 
COMPS,ioos:station:USF.COMPS:ARP:1,2009-01-01T01:12:00Z,28.4330,-82.6670,17.0,1111122 
COMPS,ioos:station:USF.COMPS:ARP:1,2009-01-01T01:18:00Z,28.4330,-82.6670,17.0,1111122 
COMPS,ioos:station:USF.COMPS:ARP:1,2009-01-01T01:24:00Z,28.4330,-82.6670,16.91,1111122 
COMPS,ioos:station:USF.COMPS:ARP:1,2009-01-01T01:30:00Z,28.4330,-82.6670,16.93,1111122 
COMPS,ioos:station:USF.COMPS:ARP:1,2009-01-01T01:36:00Z,28.4330,-82.6670,16.97,1111122 
COMPS,ioos:station:USF.COMPS:ARP:1,2009-01-01T01:42:00Z,28.4330,-82.6670,17.02,1111122 
COMPS,ioos:station:USF.COMPS:ARP:1,2009-01-01T01:48:00Z,28.4330,-82.6670,17.13,1111122 
COMPS,ioos:station:USF.COMPS:ARP:1,2009-01-01T01:54:00Z,28.4330,-82.6670,17.18,1111122 
COMPS,ioos:station:USF.COMPS:ARP:1,2009-01-01T02:00:00Z,28.4330,-82.6670,17.14,1111122 
COMPS,ioos:station:USF.COMPS:ARP:1,2009-01-01T02:06:00Z,28.4330,-82.6670,17.17,1111122 
COMPS,ioos:station:USF.COMPS:ARP:1,2009-01-01T02:12:00Z,28.4330,-82.6670,17.27,1111122 
COMPS,ioos:station:USF.COMPS:ARP:1,2009-01-01T02:18:00Z,28.4330,-82.6670,17.26,1111122 
COMPS,ioos:station:USF.COMPS:ARP:1,2009-01-01T02:24:00Z,28.4330,-82.6670,17.27,1111122 
COMPS,ioos:station:USF.COMPS:ARP:1,2009-01-01T02:30:00Z,28.4330,-82.6670,17.25,1111122 
COMPS,ioos:station:USF.COMPS:ARP:1,2009-01-01T02:36:00Z,28.4330,-82.6670,17.21,1111122 
COMPS,ioos:station:USF.COMPS:ARP:1,2009-01-01T02:42:00Z,28.4330,-82.6670,17.26,1111122 
COMPS,ioos:station:USF.COMPS:ARP:1,2009-01-01T02:48:00Z,28.4330,-82.6670,17.27,1111122 
COMPS,ioos:station:USF.COMPS:ARP:1,2009-01-01T02:54:00Z,28.4330,-82.6670,17.23,1111122 
COMPS,ioos:station:USF.COMPS:ARP:1,2009-01-01T03:00:00Z,28.4330,-82.6670,17.04,1111122 
COMPS,ioos:station:USF.COMPS:ARP:1,2009-01-01T03:06:00Z,28.4330,-82.6670,16.95,1111122 
COMPS,ioos:station:USF.COMPS:ARP:1,2009-01-01T03:12:00Z,28.4330,-82.6670,17.01,1111122 
COMPS,ioos:station:USF.COMPS:ARP:1,2009-01-01T03:18:00Z,28.4330,-82.6670,16.92,1111122 
COMPS,ioos:station:USF.COMPS:ARP:1,2009-01-01T03:24:00Z,28.4330,-82.6670,16.83,1111122 
COMPS,ioos:station:USF.COMPS:ARP:1,2009-01-01T03:30:00Z,28.4330,-82.6670,16.68,1111122 
COMPS,ioos:station:USF.COMPS:ARP:1,2009-01-01T03:36:00Z,28.4330,-82.6670,16.55,1111122 
COMPS,ioos:station:USF.COMPS:ARP:1,2009-01-01T03:42:00Z,28.4330,-82.6670,16.39,1111122 
COMPS,ioos:station:USF.COMPS:ARP:1,2009-01-01T03:48:00Z,28.4330,-82.6670,16.13,1111122 
COMPS,ioos:station:USF.COMPS:ARP:1,2009-01-01T03:54:00Z,28.4330,-82.6670,15.94,1111122 
COMPS,ioos:station:USF.COMPS:ARP:1,2009-01-01T04:00:00Z,28.4330,-82.6670,15.72,1111122 
COMPS,ioos:station:USF.COMPS:ARP:1,2009-01-01T04:06:00Z,28.4330,-82.6670,15.54,1111122 
COMPS,ioos:station:USF.COMPS:ARP:1,2009-01-01T04:12:00Z,28.4330,-82.6670,15.36,1111122 
COMPS,ioos:station:USF.COMPS:ARP:1,2009-01-01T04:18:00Z,28.4330,-82.6670,15.23,1111122 
COMPS,ioos:station:USF.COMPS:ARP:1,2009-01-01T04:24:00Z,28.4330,-82.6670,15.11,1111122 
COMPS,ioos:station:USF.COMPS:ARP:1,2009-01-01T04:30:00Z,28.4330,-82.6670,14.98,1111122 
COMPS,ioos:station:USF.COMPS:ARP:1,2009-01-01T04:36:00Z,28.4330,-82.6670,14.85,1111122 
COMPS,ioos:station:USF.COMPS:ARP:1,2009-01-01T04:42:00Z,28.4330,-82.6670,14.79,1111122 
COMPS,ioos:station:USF.COMPS:ARP:1,2009-01-01T04:48:00Z,28.4330,-82.6670,14.73,1111122 
COMPS,ioos:station:USF.COMPS:ARP:1,2009-01-01T04:54:00Z,28.4330,-82.6670,14.64,1111122 
COMPS,ioos:station:USF.COMPS:ARP:1,2009-01-01T05:00:00Z,28.4330,-82.6670,14.56,1111122 
COMPS,ioos:station:USF.COMPS:ARP:1,2009-01-01T05:06:00Z,28.4330,-82.6670,14.46,1111122 
COMPS,ioos:station:USF.COMPS:ARP:1,2009-01-01T05:12:00Z,28.4330,-82.6670,14.38,1111122 
COMPS,ioos:station:USF.COMPS:ARP:1,2009-01-01T05:18:00Z,28.4330,-82.6670,14.26,1111122 
COMPS,ioos:station:USF.COMPS:ARP:1,2009-01-01T05:24:00Z,28.4330,-82.6670,14.1,1111122 
COMPS,ioos:station:USF.COMPS:ARP:1,2009-01-01T05:30:00Z,28.4330,-82.6670,13.96,1111122 
COMPS,ioos:station:USF.COMPS:ARP:1,2009-01-01T05:36:00Z,28.4330,-82.6670,13.84,1111122 
COMPS,ioos:station:USF.COMPS:ARP:1,2009-01-01T05:42:00Z,28.4330,-82.6670,13.7,1111122 
COMPS,ioos:station:USF.COMPS:ARP:1,2009-01-01T05:48:00Z,28.4330,-82.6670,13.6,1111122 
COMPS,ioos:station:USF.COMPS:ARP:1,2009-01-01T05:54:00Z,28.4330,-82.6670,13.5,1111122 
COMPS,ioos:station:USF.COMPS:ARP:1,2009-01-01T06:00:00Z,28.4330,-82.6670,13.36,1111122 
COMPS,ioos:station:USF.COMPS:ARP:1,2009-01-01T06:06:00Z,28.4330,-82.6670,13.28,1111122 
COMPS,ioos:station:USF.COMPS:ARP:1,2009-01-01T06:12:00Z,28.4330,-82.6670,13.11,1111122 
COMPS,ioos:station:USF.COMPS:ARP:1,2009-01-01T06:18:00Z,28.4330,-82.6670,13.02,1111122 
COMPS,ioos:station:USF.COMPS:ARP:1,2009-01-01T06:24:00Z,28.4330,-82.6670,12.85,1111122 
COMPS,ioos:station:USF.COMPS:ARP:1,2009-01-01T06:30:00Z,28.4330,-82.6670,12.72,1111122 
COMPS,ioos:station:USF.COMPS:ARP:1,2009-01-01T06:36:00Z,28.4330,-82.6670,12.6,1111122 
COMPS,ioos:station:USF.COMPS:ARP:1,2009-01-01T06:42:00Z,28.4330,-82.6670,12.51,1111122 
COMPS,ioos:station:USF.COMPS:ARP:1,2009-01-01T06:48:00Z,28.4330,-82.6670,12.43,1111122 
COMPS,ioos:station:USF.COMPS:ARP:1,2009-01-01T06:54:00Z,28.4330,-82.6670,12.41,1111122 
COMPS,ioos:station:USF.COMPS:ARP:1,2009-01-01T07:00:00Z,28.4330,-82.6670,12.24,1111122 
COMPS,ioos:station:USF.COMPS:ARP:1,2009-01-01T07:06:00Z,28.4330,-82.6670,12.12,1111122 
COMPS,ioos:station:USF.COMPS:ARP:1,2009-01-01T07:12:00Z,28.4330,-82.6670,12.01,1111122 
COMPS,ioos:station:USF.COMPS:ARP:1,2009-01-01T07:18:00Z,28.4330,-82.6670,11.9,1111122 
COMPS,ioos:station:USF.COMPS:ARP:1,2009-01-01T07:24:00Z,28.4330,-82.6670,11.78,1111122 
COMPS,ioos:station:USF.COMPS:ARP:1,2009-01-01T07:30:00Z,28.4330,-82.6670,11.72,1111122 
COMPS,ioos:station:USF.COMPS:ARP:1,2009-01-01T07:36:00Z,28.4330,-82.6670,11.6,1111122 
COMPS,ioos:station:USF.COMPS:ARP:1,2009-01-01T07:42:00Z,28.4330,-82.6670,11.49,1111122 
COMPS,ioos:station:USF.COMPS:ARP:1,2009-01-01T07:48:00Z,28.4330,-82.6670,11.42,1111122 
COMPS,ioos:station:USF.COMPS:ARP:1,2009-01-01T07:54:00Z,28.4330,-82.6670,11.29,1111122 
COMPS,ioos:station:USF.COMPS:ARP:1,2009-01-01T08:00:00Z,28.4330,-82.6670,11.13,1111122 
COMPS,ioos:station:USF.COMPS:ARP:1,2009-01-01T08:06:00Z,28.4330,-82.6670,10.97,1111122 
COMPS,ioos:station:USF.COMPS:ARP:1,2009-01-01T08:12:00Z,28.4330,-82.6670,10.84,1111122 
COMPS,ioos:station:USF.COMPS:ARP:1,2009-01-01T08:18:00Z,28.4330,-82.6670,10.77,1111122 
COMPS,ioos:station:USF.COMPS:ARP:1,2009-01-01T08:24:00Z,28.4330,-82.6670,10.68,1111122 
COMPS,ioos:station:USF.COMPS:ARP:1,2009-01-01T08:30:00Z,28.4330,-82.6670,10.52,1111122 
COMPS,ioos:station:USF.COMPS:ARP:1,2009-01-01T08:36:00Z,28.4330,-82.6670,10.39,1111122 
COMPS,ioos:station:USF.COMPS:ARP:1,2009-01-01T08:42:00Z,28.4330,-82.6670,10.35,1111122 
COMPS,ioos:station:USF.COMPS:ARP:1,2009-01-01T08:48:00Z,28.4330,-82.6670,10.28,1111122 
COMPS,ioos:station:USF.COMPS:ARP:1,2009-01-01T08:54:00Z,28.4330,-82.6670,10.21,1111122 
COMPS,ioos:station:USF.COMPS:ARP:1,2009-01-01T09:00:00Z,28.4330,-82.6670,10.09,1111122 
COMPS,ioos:station:USF.COMPS:ARP:1,2009-01-01T09:06:00Z,28.4330,-82.6670,9.98,1111122 
COMPS,ioos:station:USF.COMPS:ARP:1,2009-01-01T09:12:00Z,28.4330,-82.6670,9.89,1111122 
COMPS,ioos:station:USF.COMPS:ARP:1,2009-01-01T09:18:00Z,28.4330,-82.6670,9.78,1111122 
COMPS,ioos:station:USF.COMPS:ARP:1,2009-01-01T09:24:00Z,28.4330,-82.6670,9.68,1111122 
COMPS,ioos:station:USF.COMPS:ARP:1,2009-01-01T09:30:00Z,28.4330,-82.6670,9.63,1111122 
COMPS,ioos:station:USF.COMPS:ARP:1,2009-01-01T09:36:00Z,28.4330,-82.6670,9.56,1111122 
COMPS,ioos:station:USF.COMPS:ARP:1,2009-01-01T09:42:00Z,28.4330,-82.6670,9.57,1111122 
COMPS,ioos:station:USF.COMPS:ARP:1,2009-01-01T09:48:00Z,28.4330,-82.6670,9.44,1111122 
COMPS,ioos:station:USF.COMPS:ARP:1,2009-01-01T09:54:00Z,28.4330,-82.6670,9.5,1111122 
COMPS,ioos:station:USF.COMPS:ARP:1,2009-01-01T10:00:00Z,28.4330,-82.6670,9.34,1111122 
COMPS,ioos:station:USF.COMPS:ARP:1,2009-01-01T10:06:00Z,28.4330,-82.6670,9.26,1111122 
COMPS,ioos:station:USF.COMPS:ARP:1,2009-01-01T10:12:00Z,28.4330,-82.6670,9.16,1111122 
COMPS,ioos:station:USF.COMPS:ARP:1,2009-01-01T10:18:00Z,28.4330,-82.6670,9.17,1111122 
COMPS,ioos:station:USF.COMPS:ARP:1,2009-01-01T10:24:00Z,28.4330,-82.6670,9.05,1111122 
COMPS,ioos:station:USF.COMPS:ARP:1,2009-01-01T10:30:00Z,28.4330,-82.6670,9.0,1111122 
COMPS,ioos:station:USF.COMPS:ARP:1,2009-01-01T10:36:00Z,28.4330,-82.6670,8.91,1111122 
COMPS,ioos:station:USF.COMPS:ARP:1,2009-01-01T10:42:00Z,28.4330,-82.6670,8.87,1111122 
COMPS,ioos:station:USF.COMPS:ARP:1,2009-01-01T10:48:00Z,28.4330,-82.6670,8.77,1111122 
COMPS,ioos:station:USF.COMPS:ARP:1,2009-01-01T10:54:00Z,28.4330,-82.6670,8.83,1111122 
COMPS,ioos:station:USF.COMPS:ARP:1,2009-01-01T11:00:00Z,28.4330,-82.6670,8.67,1111122 
COMPS,ioos:station:USF.COMPS:ARP:1,2009-01-01T11:06:00Z,28.4330,-82.6670,8.64,1111122 
COMPS,ioos:station:USF.COMPS:ARP:1,2009-01-01T11:12:00Z,28.4330,-82.6670,8.55,1111122 
COMPS,ioos:station:USF.COMPS:ARP:1,2009-01-01T11:18:00Z,28.4330,-82.6670,8.54,1111122 
COMPS,ioos:station:USF.COMPS:ARP:1,2009-01-01T11:24:00Z,28.4330,-82.6670,8.56,1111122 
COMPS,ioos:station:USF.COMPS:ARP:1,2009-01-01T11:30:00Z,28.4330,-82.6670,8.62,1111122 
COMPS,ioos:station:USF.COMPS:ARP:1,2009-01-01T11:36:00Z,28.4330,-82.6670,8.62,1111122 
COMPS,ioos:station:USF.COMPS:ARP:1,2009-01-01T11:42:00Z,28.4330,-82.6670,8.62,1111122 
COMPS,ioos:station:USF.COMPS:ARP:1,2009-01-01T11:48:00Z,28.4330,-82.6670,8.64,1111122 
COMPS,ioos:station:USF.COMPS:ARP:1,2009-01-01T11:54:00Z,28.4330,-82.6670,8.77,1111122 
COMPS,ioos:station:USF.COMPS:ARP:1,2009-01-01T12:00:00Z,28.4330,-82.6670,8.68,1111122 
COMPS,ioos:station:USF.COMPS:ARP:1,2009-01-01T12:06:00Z,28.4330,-82.6670,8.69,1111122 
COMPS,ioos:station:USF.COMPS:ARP:1,2009-01-01T12:12:00Z,28.4330,-82.6670,8.69,1111122 
COMPS,ioos:station:USF.COMPS:ARP:1,2009-01-01T12:18:00Z,28.4330,-82.6670,8.7,1111122 
COMPS,ioos:station:USF.COMPS:ARP:1,2009-01-01T12:24:00Z,28.4330,-82.6670,8.67,1111122 
COMPS,ioos:station:USF.COMPS:ARP:1,2009-01-01T12:30:00Z,28.4330,-82.6670,8.64,1111122 
COMPS,ioos:station:USF.COMPS:ARP:1,2009-01-01T12:36:00Z,28.4330,-82.6670,8.74,1111122 
COMPS,ioos:station:USF.COMPS:ARP:1,2009-01-01T12:42:00Z,28.4330,-82.6670,8.77,1111122 
COMPS,ioos:station:USF.COMPS:ARP:1,2009-01-01T12:48:00Z,28.4330,-82.6670,8.77,1111122 
COMPS,ioos:station:USF.COMPS:ARP:1,2009-01-01T12:54:00Z,28.4330,-82.6670,8.87,1111122 
COMPS,ioos:station:USF.COMPS:ARP:1,2009-01-01T13:00:00Z,28.4330,-82.6670,8.89,1111122 
COMPS,ioos:station:USF.COMPS:ARP:1,2009-01-01T13:06:00Z,28.4330,-82.6670,9.11,1111122 
COMPS,ioos:station:USF.COMPS:ARP:1,2009-01-01T13:12:00Z,28.4330,-82.6670,9.43,1111122 
COMPS,ioos:station:USF.COMPS:ARP:1,2009-01-01T13:18:00Z,28.4330,-82.6670,9.82,1111122 
COMPS,ioos:station:USF.COMPS:ARP:1,2009-01-01T13:24:00Z,28.4330,-82.6670,10.26,1111122 
COMPS,ioos:station:USF.COMPS:ARP:1,2009-01-01T13:30:00Z,28.4330,-82.6670,10.76,1111122 
COMPS,ioos:station:USF.COMPS:ARP:1,2009-01-01T13:36:00Z,28.4330,-82.6670,11.27,1111122 
COMPS,ioos:station:USF.COMPS:ARP:1,2009-01-01T13:42:00Z,28.4330,-82.6670,11.56,1111122 
COMPS,ioos:station:USF.COMPS:ARP:1,2009-01-01T13:48:00Z,28.4330,-82.6670,11.94,1111122 
COMPS,ioos:station:USF.COMPS:ARP:1,2009-01-01T13:54:00Z,28.4330,-82.6670,12.23,1111122 
COMPS,ioos:station:USF.COMPS:ARP:1,2009-01-01T14:00:00Z,28.4330,-82.6670,12.43,1111122 
COMPS,ioos:station:USF.COMPS:ARP:1,2009-01-01T14:06:00Z,28.4330,-82.6670,12.8,1111122 
COMPS,ioos:station:USF.COMPS:ARP:1,2009-01-01T14:12:00Z,28.4330,-82.6670,13.11,1111122 
COMPS,ioos:station:USF.COMPS:ARP:1,2009-01-01T14:18:00Z,28.4330,-82.6670,13.35,1111122 
COMPS,ioos:station:USF.COMPS:ARP:1,2009-01-01T14:24:00Z,28.4330,-82.6670,13.5,1111122 
COMPS,ioos:station:USF.COMPS:ARP:1,2009-01-01T14:30:00Z,28.4330,-82.6670,13.74,1111122 
COMPS,ioos:station:USF.COMPS:ARP:1,2009-01-01T14:36:00Z,28.4330,-82.6670,13.96,1111122 
COMPS,ioos:station:USF.COMPS:ARP:1,2009-01-01T14:42:00Z,28.4330,-82.6670,14.39,1111122 
COMPS,ioos:station:USF.COMPS:ARP:1,2009-01-01T14:48:00Z,28.4330,-82.6670,14.86,1111122 
COMPS,ioos:station:USF.COMPS:ARP:1,2009-01-01T14:54:00Z,28.4330,-82.6670,15.59,1111122 
COMPS,ioos:station:USF.COMPS:ARP:1,2009-01-01T15:00:00Z,28.4330,-82.6670,15.95,1111122 
COMPS,ioos:station:USF.COMPS:ARP:1,2009-01-01T15:06:00Z,28.4330,-82.6670,16.19,1111122 
COMPS,ioos:station:USF.COMPS:ARP:1,2009-01-01T15:12:00Z,28.4330,-82.6670,16.33,1111122 
COMPS,ioos:station:USF.COMPS:ARP:1,2009-01-01T15:18:00Z,28.4330,-82.6670,16.53,1111122 
COMPS,ioos:station:USF.COMPS:ARP:1,2009-01-01T15:24:00Z,28.4330,-82.6670,16.53,1111122 
COMPS,ioos:station:USF.COMPS:ARP:1,2009-01-01T15:30:00Z,28.4330,-82.6670,16.61,1111122 
COMPS,ioos:station:USF.COMPS:ARP:1,2009-01-01T15:36:00Z,28.4330,-82.6670,16.8,1111122 
COMPS,ioos:station:USF.COMPS:ARP:1,2009-01-01T15:42:00Z,28.4330,-82.6670,17.15,1111122 
COMPS,ioos:station:USF.COMPS:ARP:1,2009-01-01T15:48:00Z,28.4330,-82.6670,17.17,1111122 
COMPS,ioos:station:USF.COMPS:ARP:1,2009-01-01T15:54:00Z,28.4330,-82.6670,17.34,1111122 
COMPS,ioos:station:USF.COMPS:ARP:1,2009-01-01T16:00:00Z,28.4330,-82.6670,17.4,1111122 
COMPS,ioos:station:USF.COMPS:ARP:1,2009-01-01T16:06:00Z,28.4330,-82.6670,17.4,1111122 
COMPS,ioos:station:USF.COMPS:ARP:1,2009-01-01T16:12:00Z,28.4330,-82.6670,17.58,1111122 
COMPS,ioos:station:USF.COMPS:ARP:1,2009-01-01T16:18:00Z,28.4330,-82.6670,18.09,1111122 
COMPS,ioos:station:USF.COMPS:ARP:1,2009-01-01T16:24:00Z,28.4330,-82.6670,18.19,1111122 
COMPS,ioos:station:USF.COMPS:ARP:1,2009-01-01T16:30:00Z,28.4330,-82.6670,18.35,1111122 
COMPS,ioos:station:USF.COMPS:ARP:1,2009-01-01T16:36:00Z,28.4330,-82.6670,18.39,1111122 
COMPS,ioos:station:USF.COMPS:ARP:1,2009-01-01T16:42:00Z,28.4330,-82.6670,18.48,1111122 
COMPS,ioos:station:USF.COMPS:ARP:1,2009-01-01T16:48:00Z,28.4330,-82.6670,18.77,1111122 
COMPS,ioos:station:USF.COMPS:ARP:1,2009-01-01T16:54:00Z,28.4330,-82.6670,19.02,1111122 
COMPS,ioos:station:USF.COMPS:ARP:1,2009-01-01T17:00:00Z,28.4330,-82.6670,19.33,1111122 
COMPS,ioos:station:USF.COMPS:ARP:1,2009-01-01T17:06:00Z,28.4330,-82.6670,19.39,1111122 
COMPS,ioos:station:USF.COMPS:ARP:1,2009-01-01T17:12:00Z,28.4330,-82.6670,19.7,1111122 
COMPS,ioos:station:USF.COMPS:ARP:1,2009-01-01T17:18:00Z,28.4330,-82.6670,19.57,1111122 
COMPS,ioos:station:USF.COMPS:ARP:1,2009-01-01T17:24:00Z,28.4330,-82.6670,19.51,1111122 
COMPS,ioos:station:USF.COMPS:ARP:1,2009-01-01T17:30:00Z,28.4330,-82.6670,19.51,1111122 
COMPS,ioos:station:USF.COMPS:ARP:1,2009-01-01T17:36:00Z,28.4330,-82.6670,19.68,1111122 
COMPS,ioos:station:USF.COMPS:ARP:1,2009-01-01T17:42:00Z,28.4330,-82.6670,19.84,1111122 
COMPS,ioos:station:USF.COMPS:ARP:1,2009-01-01T17:48:00Z,28.4330,-82.6670,19.91,1111122 
COMPS,ioos:station:USF.COMPS:ARP:1,2009-01-01T17:54:00Z,28.4330,-82.6670,19.78,1111122 
COMPS,ioos:station:USF.COMPS:ARP:1,2009-01-01T18:00:00Z,28.4330,-82.6670,19.56,1111122 
COMPS,ioos:station:USF.COMPS:ARP:1,2009-01-01T18:06:00Z,28.4330,-82.6670,19.34,1111122 
COMPS,ioos:station:USF.COMPS:ARP:1,2009-01-01T18:12:00Z,28.4330,-82.6670,19.67,1111122 
COMPS,ioos:station:USF.COMPS:ARP:1,2009-01-01T18:18:00Z,28.4330,-82.6670,20.06,1111122 
COMPS,ioos:station:USF.COMPS:ARP:1,2009-01-01T18:24:00Z,28.4330,-82.6670,19.79,1111122 
COMPS,ioos:station:USF.COMPS:ARP:1,2009-01-01T18:30:00Z,28.4330,-82.6670,19.72,1111122 
COMPS,ioos:station:USF.COMPS:ARP:1,2009-01-01T18:36:00Z,28.4330,-82.6670,19.62,1111122 
COMPS,ioos:station:USF.COMPS:ARP:1,2009-01-01T18:42:00Z,28.4330,-82.6670,19.63,1111122 
COMPS,ioos:station:USF.COMPS:ARP:1,2009-01-01T18:48:00Z,28.4330,-82.6670,19.86,1111122 
COMPS,ioos:station:USF.COMPS:ARP:1,2009-01-01T18:54:00Z,28.4330,-82.6670,19.87,1111122 
COMPS,ioos:station:USF.COMPS:ARP:1,2009-01-01T19:00:00Z,28.4330,-82.6670,19.65,1111122 
COMPS,ioos:station:USF.COMPS:ARP:1,2009-01-01T19:06:00Z,28.4330,-82.6670,19.72,1111122 
COMPS,ioos:station:USF.COMPS:ARP:1,2009-01-01T19:12:00Z,28.4330,-82.6670,19.7,1111122 
COMPS,ioos:station:USF.COMPS:ARP:1,2009-01-01T19:18:00Z,28.4330,-82.6670,19.59,1111122 
COMPS,ioos:station:USF.COMPS:ARP:1,2009-01-01T19:24:00Z,28.4330,-82.6670,19.67,1111122 
COMPS,ioos:station:USF.COMPS:ARP:1,2009-01-01T19:30:00Z,28.4330,-82.6670,19.89,1111122 
COMPS,ioos:station:USF.COMPS:ARP:1,2009-01-01T19:36:00Z,28.4330,-82.6670,20.11,1111122 
COMPS,ioos:station:USF.COMPS:ARP:1,2009-01-01T19:42:00Z,28.4330,-82.6670,20.19,1111122 
COMPS,ioos:station:USF.COMPS:ARP:1,2009-01-01T19:48:00Z,28.4330,-82.6670,19.9,1111122 
COMPS,ioos:station:USF.COMPS:ARP:1,2009-01-01T19:54:00Z,28.4330,-82.6670,19.94,1111122 
COMPS,ioos:station:USF.COMPS:ARP:1,2009-01-01T20:00:00Z,28.4330,-82.6670,19.94,1111122 
COMPS,ioos:station:USF.COMPS:ARP:1,2009-01-01T20:06:00Z,28.4330,-82.6670,20.33,1111122 
COMPS,ioos:station:USF.COMPS:ARP:1,2009-01-01T20:12:00Z,28.4330,-82.6670,20.08,1111122 
COMPS,ioos:station:USF.COMPS:ARP:1,2009-01-01T20:18:00Z,28.4330,-82.6670,19.92,1111122 
COMPS,ioos:station:USF.COMPS:ARP:1,2009-01-01T20:24:00Z,28.4330,-82.6670,19.84,1111122 
COMPS,ioos:station:USF.COMPS:ARP:1,2009-01-01T20:30:00Z,28.4330,-82.6670,19.72,1111122 
COMPS,ioos:station:USF.COMPS:ARP:1,2009-01-01T20:36:00Z,28.4330,-82.6670,19.65,1111122 
COMPS,ioos:station:USF.COMPS:ARP:1,2009-01-01T20:42:00Z,28.4330,-82.6670,19.7,1111122 
COMPS,ioos:station:USF.COMPS:ARP:1,2009-01-01T20:48:00Z,28.4330,-82.6670,19.78,1111122 
COMPS,ioos:station:USF.COMPS:ARP:1,2009-01-01T20:54:00Z,28.4330,-82.6670,19.86,1111122 
COMPS,ioos:station:USF.COMPS:ARP:1,2009-01-01T21:00:00Z,28.4330,-82.6670,19.65,1111122 
COMPS,ioos:station:USF.COMPS:ARP:1,2009-01-01T21:06:00Z,28.4330,-82.6670,19.5,1111122 
COMPS,ioos:station:USF.COMPS:ARP:1,2009-01-01T21:12:00Z,28.4330,-82.6670,19.36,1111122 
COMPS,ioos:station:USF.COMPS:ARP:1,2009-01-01T21:18:00Z,28.4330,-82.6670,19.22,1111122 
COMPS,ioos:station:USF.COMPS:ARP:1,2009-01-01T21:24:00Z,28.4330,-82.6670,19.16,1111122 
COMPS,ioos:station:USF.COMPS:ARP:1,2009-01-01T21:30:00Z,28.4330,-82.6670,19.06,1111122 
COMPS,ioos:station:USF.COMPS:ARP:1,2009-01-01T21:36:00Z,28.4330,-82.6670,19.05,1111122 
COMPS,ioos:station:USF.COMPS:ARP:1,2009-01-01T21:42:00Z,28.4330,-82.6670,19.18,1111122 
COMPS,ioos:station:USF.COMPS:ARP:1,2009-01-01T21:48:00Z,28.4330,-82.6670,19.15,1111122 
COMPS,ioos:station:USF.COMPS:ARP:1,2009-01-01T21:54:00Z,28.4330,-82.6670,19.04,1111122 
COMPS,ioos:station:USF.COMPS:ARP:1,2009-01-01T22:00:00Z,28.4330,-82.6670,18.82,1111122 
COMPS,ioos:station:USF.COMPS:ARP:1,2009-01-01T22:06:00Z,28.4330,-82.6670,18.66,1111122 
COMPS,ioos:station:USF.COMPS:ARP:1,2009-01-01T22:12:00Z,28.4330,-82.6670,18.51,1111122 
COMPS,ioos:station:USF.COMPS:ARP:1,2009-01-01T22:18:00Z,28.4330,-82.6670,18.46,1111122 
COMPS,ioos:station:USF.COMPS:ARP:1,2009-01-01T22:24:00Z,28.4330,-82.6670,18.35,1111122 
COMPS,ioos:station:USF.COMPS:ARP:1,2009-01-01T22:30:00Z,28.4330,-82.6670,18.28,1111122 
COMPS,ioos:station:USF.COMPS:ARP:1,2009-01-01T22:36:00Z,28.4330,-82.6670,18.23,1111122 
COMPS,ioos:station:USF.COMPS:ARP:1,2009-01-01T22:42:00Z,28.4330,-82.6670,18.1,1111122 
COMPS,ioos:station:USF.COMPS:ARP:1,2009-01-01T22:48:00Z,28.4330,-82.6670,17.95,1111122 
COMPS,ioos:station:USF.COMPS:ARP:1,2009-01-01T22:54:00Z,28.4330,-82.6670,17.87,1111122 
COMPS,ioos:station:USF.COMPS:ARP:1,2009-01-01T23:00:00Z,28.4330,-82.6670,17.68,1111122 
COMPS,ioos:station:USF.COMPS:ARP:1,2009-01-01T23:06:00Z,28.4330,-82.6670,17.62,1111122 
COMPS,ioos:station:USF.COMPS:ARP:1,2009-01-01T23:12:00Z,28.4330,-82.6670,17.54,1111122 
COMPS,ioos:station:USF.COMPS:ARP:1,2009-01-01T23:18:00Z,28.4330,-82.6670,17.4,1111122 
COMPS,ioos:station:USF.COMPS:ARP:1,2009-01-01T23:24:00Z,28.4330,-82.6670,17.42,1111122 
COMPS,ioos:station:USF.COMPS:ARP:1,2009-01-01T23:30:00Z,28.4330,-82.6670,17.31,1111122 
COMPS,ioos:station:USF.COMPS:ARP:1,2009-01-01T23:36:00Z,28.4330,-82.6670,17.31,1111122 
COMPS,ioos:station:USF.COMPS:ARP:1,2009-01-01T23:42:00Z,28.4330,-82.6670,17.24,1111122 
COMPS,ioos:station:USF.COMPS:ARP:1,2009-01-01T23:48:00Z,28.4330,-82.6670,17.12,1111122 
COMPS,ioos:station:USF.COMPS:ARP:1,2009-01-01T23:54:00Z,28.4330,-82.6670,17.06,1111122 
COMPS,ioos:station:USF.COMPS:ARP:1,2009-01-02T00:00:00Z,28.4330,-82.6670,16.88,1111122 
COMPS,ioos:station:USF.COMPS:ARP:1,2009-01-02T00:06:00Z,28.4330,-82.6670,16.74,1111122 
COMPS,ioos:station:USF.COMPS:ARP:1,2009-01-02T00:12:00Z,28.4330,-82.6670,16.74,1111122 
COMPS,ioos:station:USF.COMPS:ARP:1,2009-01-02T00:18:00Z,28.4330,-82.6670,16.63,1111122 
COMPS,ioos:station:USF.COMPS:ARP:1,2009-01-02T00:24:00Z,28.4330,-82.6670,16.62,1111122 
COMPS,ioos:station:USF.COMPS:ARP:1,2009-01-02T00:30:00Z,28.4330,-82.6670,16.6,1111122 
COMPS,ioos:station:USF.COMPS:ARP:1,2009-01-02T00:36:00Z,28.4330,-82.6670,16.58,1111122 
COMPS,ioos:station:USF.COMPS:ARP:1,2009-01-02T00:42:00Z,28.4330,-82.6670,16.48,1111122 
COMPS,ioos:station:USF.COMPS:ARP:1,2009-01-02T00:48:00Z,28.4330,-82.6670,16.47,1111122 
COMPS,ioos:station:USF.COMPS:ARP:1,2009-01-02T00:54:00Z,28.4330,-82.6670,16.45,1111122 
COMPS,ioos:station:USF.COMPS:ARP:1,2009-01-02T01:00:00Z,28.4330,-82.6670,16.31,1111122 
COMPS,ioos:station:USF.COMPS:ARP:1,2009-01-02T01:06:00Z,28.4330,-82.6670,16.19,1111122 
COMPS,ioos:station:USF.COMPS:ARP:1,2009-01-02T01:12:00Z,28.4330,-82.6670,16.07,1111122 
COMPS,ioos:station:USF.COMPS:ARP:1,2009-01-02T01:18:00Z,28.4330,-82.6670,16.06,1111122 
COMPS,ioos:station:USF.COMPS:ARP:1,2009-01-02T01:24:00Z,28.4330,-82.6670,15.93,1111122 
COMPS,ioos:station:USF.COMPS:ARP:1,2009-01-02T01:30:00Z,28.4330,-82.6670,15.85,1111122 
COMPS,ioos:station:USF.COMPS:ARP:1,2009-01-02T01:36:00Z,28.4330,-82.6670,15.78,1111122 
COMPS,ioos:station:USF.COMPS:ARP:1,2009-01-02T01:42:00Z,28.4330,-82.6670,15.67,1111122 
COMPS,ioos:station:USF.COMPS:ARP:1,2009-01-02T01:48:00Z,28.4330,-82.6670,15.55,1111122 
COMPS,ioos:station:USF.COMPS:ARP:1,2009-01-02T01:54:00Z,28.4330,-82.6670,15.54,1111122 
COMPS,ioos:station:USF.COMPS:ARP:1,2009-01-02T02:00:00Z,28.4330,-82.6670,15.4,1111122 
COMPS,ioos:station:USF.COMPS:ARP:1,2009-01-02T02:06:00Z,28.4330,-82.6670,15.38,1111122 
COMPS,ioos:station:USF.COMPS:ARP:1,2009-01-02T02:12:00Z,28.4330,-82.6670,15.34,1111122 
COMPS,ioos:station:USF.COMPS:ARP:1,2009-01-02T02:18:00Z,28.4330,-82.6670,15.24,1111122 
COMPS,ioos:station:USF.COMPS:ARP:1,2009-01-02T02:24:00Z,28.4330,-82.6670,15.15,1111122 
COMPS,ioos:station:USF.COMPS:ARP:1,2009-01-02T02:30:00Z,28.4330,-82.6670,15.09,1111122 
COMPS,ioos:station:USF.COMPS:ARP:1,2009-01-02T02:36:00Z,28.4330,-82.6670,14.96,1111122 
COMPS,ioos:station:USF.COMPS:ARP:1,2009-01-02T02:42:00Z,28.4330,-82.6670,14.89,1111122 
COMPS,ioos:station:USF.COMPS:ARP:1,2009-01-02T02:48:00Z,28.4330,-82.6670,14.83,1111122 
COMPS,ioos:station:USF.COMPS:ARP:1,2009-01-02T02:54:00Z,28.4330,-82.6670,14.85,1111122 
COMPS,ioos:station:USF.COMPS:ARP:1,2009-01-02T03:00:00Z,28.4330,-82.6670,14.7,1111122 
COMPS,ioos:station:USF.COMPS:ARP:1,2009-01-02T03:06:00Z,28.4330,-82.6670,14.66,1111122 